Weather in Kochko-Pozharki

Russia / Nizhny Novgorod Oblast'     55°29′44″N   45°29′18″E
temp.,
°C
wind,
m/s
gust,
m/s
humid.,
%
clouds,
%
prec.,
mm/h
press.,
hPa
HPBL,
m
2 july, sat
sat200:00+11nne514920 0.0 1017392
03:00+10nne4119473 0.0 1017256
06:00+12nne5118244 0.0 1017316
09:00+17nne696555 0.0 1017652
12:00+20nne56512 0.0 10171583
15:00+22nne46446 0.0 10162028
18:00+21ne136115 0.0 1014517
21:00+17ne1160100 0.0 101411
3 july, sun
sun300:00+14n117358 0.0 101411
03:00+15nnw2277100 0.1 101328
06:00+16nnw11806 0.1 101389
09:00+19ne237135 0.1 1013647
12:00+21nne346853 0.6 10131064
15:00+20nne667437 1.3 1013765
18:00+19ne58755 0.1 1013949
21:00+14nne339115 0.1 101443
4 july, mon
mon400:00+12nne22945 0.0 101537
03:00+11n22920 0.0 101527
06:00+14nnw3681100 0.0 1015184
09:00+19n586888 0.0 1015656
12:00+23nne575221 0.1 10142257
15:00+23ne574468 0.1 10142199
18:00+22ne2461100 0.0 1014225
21:00+16ene2373100 0.0 101531
5 july, tue
tue500:00+13w007764 0.0 101611
03:00+13wnw117647 0.0 101710
06:00+16nnw116917 0.0 101761
09:00+21n11574 0.0 1017541
12:00+23nne22454 0.0 10171682
15:00+24nne224434 0.0 10171771
18:00+23s11575 0.0 1016541
21:00+18ssw22636 0.0 101611
6 july, wed
wed600:00+16ssw22694 0.0 101716
03:00+14ssw22751 0.0 101717
06:00+17s26766 0.0 1017157
09:00+22ssw56615 0.0 1017534
12:00+25ssw555926 0.0 10161029
15:00+25sw5659100 0.0 10161014
18:00+23s477683 0.6 1015271
21:00+19sw3390100 1.3 101653